Location: Clinton NY
(43.0598°N, 75.3602°W)
Time: 00:24:34
(UTC-04:00)

ISS - All Passes

Search period start: 01 May 2017 00:00
Search period end: 11 May 2017 00:00
Orbit: 401 x 409 km, 51.6° (Epoch: 01 May)

Date Brightness Start Highest point End Pass type
(mag) Time Alt. Az. Time Alt. Az. Time Alt. Az.
01 May - 06:04:12 10° SSE 06:05:44 13° SE 06:07:15 10° ESE daylight
01 May - 07:38:31 10° WSW 07:41:47 82° NNW 07:45:04 10° NE daylight
01 May - 09:16:00 10° WNW 09:18:39 22° NNW 09:21:19 10° NE daylight
01 May - 10:53:33 10° NW 10:55:58 19° N 10:58:22 10° NE daylight
01 May - 12:29:54 10° NW 12:33:03 43° NNE 12:36:11 10° E daylight
01 May - 14:06:38 10° WNW 14:09:25 26° SW 14:12:11 10° SSE daylight
02 May - 06:46:33 10° SW 06:49:45 54° SE 06:52:57 10° ENE daylight
02 May - 08:23:30 10° W 08:26:24 28° NNW 08:29:18 10° NE daylight
02 May - 10:01:18 10° NW 10:03:38 18° N 10:05:58 10° NE daylight
02 May - 11:37:55 10° NW 11:40:51 30° NNE 11:43:47 10° E daylight
02 May - 13:14:18 10° WNW 13:17:27 48° SW 13:20:36 10° SE daylight
03 May - 05:54:54 10° SSW 05:57:47 29° SE 06:00:39 10° ENE daylight
03 May - 07:31:04 10° W 07:34:11 40° NNW 07:37:18 10° NE daylight
03 May - 09:08:54 10° NW 09:11:18 18° N 09:13:41 10° NE daylight
03 May - 10:45:54 10° NW 10:48:36 23° NNE 10:51:16 10° ENE daylight
03 May - 12:22:09 10° WNW 12:25:25 90° NE 12:28:41 10° SE daylight
03 May - 14:00:19 10° WSW 14:01:25 11° SW 14:02:32 10° SSW daylight
04 May - 05:03:46 10° S 05:05:52 16° SE 05:07:58 10° E visible
04 May - 06:38:46 10° WSW 06:42:01 66° NNW 06:45:17 10° NE daylight
04 May - 08:16:23 10° WNW 08:18:57 21° NNW 08:21:31 10° NE daylight
04 May - 09:53:47 10° NW 09:56:16 19° N 09:58:44 10° ENE daylight
04 May - 11:30:05 10° NW 11:33:17 52° NNE 11:36:29 10° ESE daylight
04 May - 13:07:02 10° W 13:09:33 21° SW 13:12:04 10° S daylight
05 May - 05:46:40 10° SW 05:49:55 69° SE 05:53:10 10° ENE daylight
05 May - 07:23:50 10° WNW 07:26:38 26° NNW 07:29:27 10° NE daylight
05 May - 09:01:34 10° NW 09:03:54 18° N 09:06:15 10° NE daylight
05 May - 10:38:03 10° NW 10:41:05 34° NNE 10:44:05 10° E daylight
05 May - 12:14:32 10° WNW 12:17:35 38° SW 12:20:38 10° SSE daylight
06 May - 04:54:50 10° SSW 04:57:52 36° SE 05:00:55 10° ENE visible
06 May - 06:31:18 10° W 06:34:21 35° NNW 06:37:24 10° NE daylight
06 May - 08:09:10 10° NW 08:11:31 18° N 08:13:52 10° NE daylight
06 May - 09:46:01 10° NW 09:48:48 25° NNE 09:51:34 10° ENE daylight
06 May - 11:22:17 10° WNW 11:25:32 73° SW 11:28:47 10° SE daylight
07 May - 04:03:25 10° S 04:05:53 20° SE 04:08:22 10° E visible
07 May - 05:38:55 10° WSW 05:42:08 54° NNW 05:45:22 10° NE daylight
07 May - 07:16:38 10° WNW 07:19:09 20° N 07:21:38 10° NE daylight
07 May - 08:53:54 10° NW 08:56:27 20° N 08:59:00 10° ENE daylight
07 May - 10:30:09 10° NW 10:33:24 63° NNE 10:36:38 10° ESE daylight
07 May - 12:07:24 10° W 12:09:34 17° SW 12:11:44 10° S daylight
08 May - 03:13:05 10° SE 03:13:58 11° SE 03:14:51 10° ESE visible
08 May - 04:46:41 10° SW 04:49:58 86° SSE 04:53:15 10° ENE visible
08 May - 06:24:03 10° WNW 06:26:46 23° NNW 06:29:30 10° NE daylight
08 May - 08:01:41 10° NW 08:04:04 18° N 08:06:26 10° NE daylight
08 May - 09:38:04 10° NW 09:41:11 39° NNE 09:44:16 10° E daylight
08 May - 11:14:41 10° WNW 11:17:36 30° SW 11:20:30 10° SSE daylight
09 May - 03:54:42 10° SW 03:57:51 46° SE 04:01:01 10° ENE visible
09 May - 05:31:28 10° W 05:34:26 31° NNW 05:37:24 10° NE daylight
09 May - 07:09:18 10° NW 07:11:38 18° N 07:13:58 10° NE daylight
09 May - 08:46:00 10° NW 08:48:53 28° NNE 08:51:45 10° E daylight
09 May - 10:22:20 10° WNW 10:25:32 57° SW 10:28:44 10° SE daylight
10 May - 03:03:04 10° SSW 03:05:49 25° SE 03:08:33 10° E visible
10 May - 04:38:59 10° WSW 04:42:09 45° NNW 04:45:19 10° NE visible
10 May - 06:16:47 10° NW 06:19:13 19° N 06:21:39 10° NE daylight
10 May - 07:53:53 10° NW 07:56:31 22° NNE 07:59:09 10° ENE daylight
10 May - 09:30:07 10° NW 09:33:23 78° NNE 09:36:39 10° ESE daylight
10 May - 11:07:47 10° W 11:09:28 13° SW 11:11:08 10° SSW daylight
